Terminal Aerodrome Forecast
Issued by NWS

Current Version | Previous Version | Text Only | Print | Product List | Glossary On
Versions: 1 2 3 4 5 6 7 8 9 10 11 12 13 14 15 16 17 18 19 20 21 22 23 24 25 26 27 28 29 30 31 32 33 34 35 36 37 38 39 40 41 42 43 44 45 46 47 48 49 50
000
FTUS41 KCTP 031805 AAA
TAFJST
TAF AMD
KJST 031805Z 0318/0418 10005KT 6SM BR OVC006
     FM031930 13008KT P6SM OVC010
     FM032100 14008KT P6SM OVC020
     FM040200 15005KT 5SM BR OVC012
     FM040600 14005KT 2SM -DZ BR OVC009
     FM041500 14006KT 6SM -RA BR OVC015=

USA.gov is the U.S. government's official web portal to all federal, state and local government web resources and services.